SCP
3 2 3 3 4 2 1 0 0 0 0 0 0 1 1 0 0 0 0 0 1 1 1 1 1 1 1 1 1 1 1 1 1 1 1 1 1 1 1 1 1 1 1 1 1 0 1 1 1
2 2 3 3 3 1 1 0 0 0 0 0 0 0 0 0 0 0 0 0 1 1 0 1 1 1 1 1 1 1 1 1 1 1 1 1 1 1 1 1 1 1 1 1 1 1 1 1 1
2 2 3 3 2 1 0 1 1 1 1 1 1 0 0 0 0 0 0 0 1 0 0 1 1 1 1 1 1 1 1 1 1 1 1 1 1 1 1 1 1 1 1 1 1 1 1 1 1
2 3 3 2 1 0 1 1 1 1 1 1 1 0 0 0 0 0 0 1 1 0 0 0 1 1 1 1 1 1 1 1 1 1 1 1 1 1 1 1 1 1 1 1 1 1 1 1 1
2 3 2 1 1 0 1 1 1 1 1 1 1 0 0 1 1 1 1 1 1 1 0 1 1 1 1 1 1 1 1 1 1 1 1 1 1 1 1 1 1 1 1 1 1 1 1 1 1
2 2 1 1 0 0 1 1 1 1 1 1 0 0 0 0 1 1 1 1 1 1 1 1 1 1 1 1 1 1 1 1 1 1 1 1 1 1 1 1 1 1 1 1 1 0 1 1 1
2 1 1 0 0 0 0 1 2 1 1 1 0 0 0 1 1 1 1 1 1 1 1 1 1 1 1 1 1 1 1 1 1 1 1 1 1 1 1 1 1 1 1 1 1 1 1 1 1
1 1 1 0 0 0 0 1 2 2 1 1 1 1 1 1 1 1 1 1 1 1 1 1 1 1 1 1 1 1 1 1 1 1 1 1 1 1 1 1 1 1 1 1 1 1 1 1 1
1 1 0 0 0 0 1 1 1 1 1 1 1 1 1 1 1 1 1 1 1 1 1 1 1 1 0 1 1 1 1 1 1 1 1 1 1 1 1 1 1 1 1 1 1 1 1 1 1
1 1 1 0 0 0 1 1 1 1 1 1 1 1 1 1 1 1 1 1 1 1 1 1 1 1 0 0 0 0 1 1 1 1 1 1 1 1 1 1 1 1 1 1 1 1 1 1 1
1 1 1 0 0 1 1 1 1 1 2 1 1 1 1 1 1 1 1 1 1 1 1 1 1 1 1 0 0 0 0 0 0 0 1 1 1 1 1 1 1 1 1 1 1 1 1 1 1
1 1 1 0 1 1 1 1 1 2 3 2 1 1 1 1 1 1 1 1 1 1 1 1 1 1 1 1 0 0 0 0 0 0 0 0 0 0 0 0 1 1 1 1 2 2 2 2 1
1 1 0 1 1 1 1 1 2 3 3 2 2 2 1 1 1 1 1 1 1 1 1 1 1 1 1 1 1 0 1 1 1 1 0 0 0 0 0 0 0 1 1 1 1 2 2 2 1
1 0 0 1 1 1 1 2 2 3 3 2 2 2 1 1 2 2 2 2 2 1 2 2 2 2 2 1 1 1 1 1 1 1 0 0 0 0 0 0 0 0 0 1 1 1 1 1 1
0 0 0 0 1 1 1 2 3 3 3 3 2 2 1 2 2 2 2 2 2 2 2 3 2 2 2 1 1 1 1 1 1 1 0 0 0 0 0 0 0 0 0 0 0 1 1 1 1
0 0 0 0 1 1 1 2 4 4 4 3 2 2 2 2 2 2 2 2 2 3 3 3 3 2 2 2 1 1 1 1 1 1 1 1 1 1 1 1 1 1 1 0 0 0 0 1 1
0 0 0 1 1 1 1 1 4 6 5 3 2 2 2 2 2 2 2 2 2 3 3 3 3 3 2 2 1 1 1 1 1 1 1 1 1 1 1 1 1 1 1 1 0 0 0 0 0
0 0 1 1 1 1 1 1 3 4 5 3 2 2 2 3 3 2 2 2 2 3 4 4 3 2 2 2 1 1 1 1 1 1 0 1 1 1 1 1 1 1 1 1 1 0 0 0 0
0 0 1 1 1 2 2 2 2 3 3 2 1 2 3 3 2 2 2 2 2 3 4 3 3 2 2 2 1 1 2 2 1 1 0 1 1 1 1 1 1 1 1 1 1 0 0 0 0
1 1 1 1 1 2 2 2 2 2 2 1 1 2 3 3 2 2 2 2 2 3 4 3 3 3 2 2 1 1 2 2 1 1 1 1 1 1 1 1 1 1 1 1 1 0 0 0 0
0 0 1 1 1 2 2 2 2 2 2 1 1 2 2 2 2 2 2 3 2 3 3 3 3 3 2 2 2 2 2 2 1 1 1 1 1 2 2 1 1 1 1 1 1 1 1 1 1
0 0 1 1 1 1 1 1 2 2 2 1 1 2 2 2 2 2 2 2 3 3 3 3 3 3 3 2 2 2 2 2 1 1 1 1 1 2 2 2 1 1 1 1 1 1 1 1 1
0 0 1 1 1 1 1 1 1 1 1 1 2 2 2 2 2 2 2 2 2 2 2 3 3 3 3 3 2 2 2 1 1 1 1 1 1 1 2 2 1 1 1 1 1 1 1 1 1
0 0 0 0 0 0 0 1 1 1 1 2 2 2 2 2 2 2 1 2 2 2 2 2 3 3 3 3 2 2 2 1 1 1 1 1 1 1 1 2 1 1 1 1 1 1 1 1 1
0 0 0 0 0 0 0 0 1 1 1 2 2 2 2 2 2 2 1 2 2 2 2 3 3 3 3 3 2 2 2 2 2 2 1 1 1 1 1 1 1 1 1 1 1 1 1 1 1
0 0 0 0 0 0 0 1 1 1 2 2 2 2 2 2 2 2 1 2 2 2 2 3 4 4 3 3 2 3 3 3 3 2 2 1 1 1 1 1 1 1 1 1 1 1 1 1 1
0 0 0 0 0 0 1 1 1 2 2 2 3 3 3 3 3 2 1 2 3 3 3 4 5 5 4 3 2 3 3 3 3 2 2 2 2 1 1 1 1 1 1 1 1 1 1 1 1
0 0 0 0 0 0 1 1 1 2 2 2 3 3 4 3 3 2 2 3 4 4 4 5 5 5 3 3 3 2 2 3 2 2 2 2 1 1 1 1 1 1 1 1 1 1 1 1 1
0 0 0 0 0 0 1 1 1 2 2 2 3 3 4 4 3 2 2 3 4 4 5 5 5 4 3 3 3 3 2 2 2 2 2 2 1 1 1 1 1 1 1 1 1 1 1 1 1
0 0 0 0 0 0 1 1 1 2 2 2 2 3 4 4 3 3 3 3 4 4 5 6 5 4 3 3 3 2 2 2 2 2 2 2 1 1 1 1 1 1 1 1 1 1 1 1 1
Wind_Speed
9 6 2 0 2 2 2 2 4 4 4 5 9 10 8 6 4 4 3 9 11 9 7 10 12 12 12 12 11 12 12 12 12 11 11 11 11 11 10 10 10 9 9 9 8 8 7 7 6
6 5 1 1 3 2 2 3 7 6 6 7 10 10 9 7 6 8 5 9 11 10 7 9 13 12 12 12 11 11 11 11 11 10 10 10 10 10 10 9 9 8 8 8 7 7 6 6 5
6 4 1 1 1 3 4 5 8 7 7 7 6 7 6 5 7 5 6 11 10 8 7 9 14 13 12 12 11 11 11 10 10 10 9 9 9 9 9 8 8 7 7 7 6 6 6 5 5
2 1 1 1 0 2 5 6 9 9 8 7 7 7 5 4 5 8 12 12 11 8 6 9 14 12 12 11 11 10 10 9 9 9 8 8 8 8 8 8 7 7 6 6 6 6 5 5 5
1 2 2 1 1 3 5 7 8 8 5 8 9 8 5 4 12 14 13 12 11 8 6 7 13 12 12 11 10 10 9 9 8 8 8 7 7 7 7 7 7 7 6 6 6 6 6 5 5
2 2 2 1 3 3 4 7 9 10 10 10 9 8 4 7 12 13 12 11 10 10 7 7 11 12 11 10 10 10 9 8 8 7 7 7 7 7 6 6 7 7 6 6 6 6 6 6 6
2 1 1 2 2 3 5 6 8 9 9 7 8 7 4 5 9 12 11 10 9 8 7 5 5 7 9 10 9 9 8 8 7 7 7 7 6 6 6 6 7 7 6 6 6 6 6 7 7
3 1 1 1 3 3 5 6 8 9 7 9 7 8 6 7 10 11 10 9 8 6 6 5 4 3 3 4 7 8 7 7 6 6 6 6 6 5 6 6 6 7 7 6 6 6 7 8 8
2 2 1 3 4 3 6 10 6 7 8 5 5 7 10 12 12 11 9 7 6 6 4 4 4 3 3 3 5 5 6 5 4 4 5 4 2 2 3 5 6 7 6 6 5 5 6 7 7
3 2 4 3 4 5 7 9 7 6 8 8 9 9 12 12 12 11 10 8 7 6 5 4 4 3 3 3 2 1 2 2 1 1 2 1 1 2 3 5 6 6 6 6 6 6 5 4 2
4 5 2 1 4 6 7 6 5 9 6 9 13 13 12 11 10 9 8 8 7 7 6 4 4 3 3 2 2 1 1 1 1 1 1 1 1 1 1 1 2 3 4 2 3 3 2 2 2
2 4 3 2 4 6 6 5 5 6 7 10 12 14 12 11 10 9 8 7 6 6 5 5 4 3 3 2 2 2 1 1 1 1 2 2 1 1 1 1 1 1 1 2 2 1 2 2 3
2 1 2 3 5 7 8 6 7 6 9 10 12 12 11 10 8 7 7 7 6 5 5 5 4 3 3 2 2 2 2 2 1 1 1 2 1 1 1 1 1 1 1 1 2 2 2 2 2
2 1 2 4 5 5 8 6 6 7 11 11 11 10 9 9 9 7 7 6 6 6 5 4 5 4 4 2 2 2 2 2 1 1 1 2 2 1 1 1 1 1 1 1 2 2 2 1 1
1 2 3 3 4 4 7 5 5 8 11 11 10 10 9 8 8 9 9 7 7 6 5 5 5 4 4 3 2 2 2 2 1 1 1 2 2 2 1 1 1 1 1 1 1 1 1 1 1
3 4 2 2 3 3 6 2 3 7 10 9 9 9 8 7 8 8 8 7 6 6 5 5 5 4 3 3 3 2 2 2 1 1 1 1 2 2 2 1 1 1 0 0 1 1 1 1 1
3 1 2 4 3 5 5 4 4 6 8 8 8 8 8 7 6 7 8 8 7 7 6 5 4 4 3 3 2 2 2 2 1 1 1 1 2 2 2 1 1 0 0 0 0 1 1 1 1
3 1 3 4 3 6 6 5 6 6 8 9 8 7 7 8 7 7 7 8 7 6 6 5 4 4 3 3 2 2 2 1 1 1 1 1 1 2 2 1 0 0 1 0 0 0 0 0 1
5 5 5 4 5 4 6 6 7 6 7 7 7 6 6 6 6 6 7 8 7 6 5 5 5 4 3 2 2 1 1 0 1 0 1 1 1 2 2 1 0 1 1 1 1 1 1 1 0
4 4 3 1 4 4 6 4 5 7 9 10 9 8 8 5 5 6 6 6 7 7 6 5 5 5 4 3 2 2 2 1 1 0 1 1 1 1 1 1 1 1 1 1 1 1 1 1 0
4 6 5 4 3 4 6 2 1 3 5 6 8 8 8 9 8 7 7 6 6 6 6 6 4 4 3 3 2 2 2 2 1 1 1 1 1 1 1 1 1 1 1 1 1 1 1 1 1
4 5 7 8 5 2 3 2 4 3 3 6 7 8 8 8 7 6 7 7 7 6 5 4 4 4 3 3 3 4 3 2 1 1 1 1 0 1 1 1 1 1 1 1 1 1 1 1 1
4 2 4 5 4 3 2 3 5 2 4 6 7 9 9 9 9 9 8 7 7 7 5 4 4 3 3 3 4 3 2 1 1 0 0 1 1 0 0 0 1 0 0 0 0 1 1 1 1
2 4 5 5 5 2 3 3 5 5 8 7 7 8 9 10 9 8 7 6 5 5 5 4 4 3 3 3 3 3 3 2 2 1 0 0 1 1 1 0 0 0 0 0 1 1 1 1 1
4 6 4 5 5 3 2 1 7 7 7 9 9 8 8 9 9 8 8 7 6 6 6 5 5 3 3 3 3 3 3 3 3 2 1 1 0 1 1 0 0 0 1 1 1 1 1 1 1
2 8 7 4 3 3 2 3 6 4 3 5 6 7 6 8 8 9 9 9 8 8 7 6 5 3 3 3 2 1 2 1 1 1 1 1 1 1 1 0 0 0 0 0 1 1 0 0 0
1 2 6 7 3 1 3 4 5 2 3 3 5 6 6 8 9 9 8 8 8 8 7 7 6 4 4 3 2 1 1 1 1 1 1 1 1 1 1 1 1 1 1 0 1 0 0 0 0
4 4 5 5 4 2 3 3 4 4 5 5 6 7 7 7 8 8 8 7 7 7 6 6 6 5 4 4 3 2 2 2 2 1 1 1 2 1 1 1 1 1 1 1 2 1 1 1 0
1 2 5 4 6 7 3 6 6 9 9 8 7 8 8 9 8 8 7 7 7 6 6 6 5 4 4 4 3 3 2 2 2 1 1 1 1 1 1 1 1 1 1 1 1 1 1 1 1
4 4 6 5 3 4 4 7 4 8 8 8 7 7 7 8 7 7 8 7 7 6 6 5 5 5 4 3 3 3 2 2 2 1 1 1 1 1 1 1 1 1 1 1 1 1 1 1 1
Wind_Direction
166 157 149 113 35 39 77 98 98 74 53 61 77 82 83 69 93 135 155 142 140 145 149 142 135 129 125 125 126 126 127 127 127 126 126 126 127 129 131 131 133 133 133 133 134 133 132 134 134
159 162 153 44 70 69 66 98 90 95 121 110 83 80 74 69 82 110 124 145 142 142 142 139 134 130 128 127 127 126 127 127 128 130 132 132 133 134 135 137 139 141 140 140 140 143 144 142 142
168 179 109 44 100 142 132 118 112 102 98 91 83 65 72 95 107 120 147 143 135 136 138 143 136 133 130 128 128 129 128 129 130 132 135 139 141 142 141 142 143 145 147 150 152 154 155 155 153
159 120 36 41 105 156 135 128 120 106 81 75 91 74 67 97 114 131 138 136 133 135 140 146 138 136 133 133 133 133 133 133 135 138 139 142 145 147 149 150 151 154 157 162 165 171 177 178 176
103 84 36 5 113 112 126 128 116 108 95 92 96 97 78 72 114 128 133 133 134 137 142 146 142 142 140 138 138 139 139 140 141 143 145 148 150 151 154 156 159 161 164 172 178 186 191 198 201
57 66 56 39 97 115 124 120 108 101 112 109 103 105 97 119 124 132 133 132 134 139 144 146 148 148 147 145 143 142 143 146 148 151 155 157 159 161 162 165 168 169 172 176 183 194 202 208 212
120 84 220 175 126 116 129 126 117 123 125 124 122 104 114 133 131 133 131 134 132 133 138 139 146 149 153 152 148 148 149 150 154 162 167 169 171 172 177 183 182 181 183 184 193 202 209 213 217
154 97 308 198 134 127 126 112 124 124 112 125 120 124 152 165 137 131 128 128 129 134 136 138 141 147 158 161 157 157 158 160 163 170 172 174 181 185 192 195 194 193 196 201 208 215 219 220 222
132 89 243 205 155 153 119 111 111 100 110 114 103 128 150 143 131 125 123 120 133 140 148 149 146 150 160 169 174 169 165 166 170 170 173 179 192 203 209 213 208 204 205 210 217 222 223 226 228
129 152 224 201 155 147 127 124 127 107 104 103 103 111 130 132 131 133 138 140 148 155 162 157 162 166 166 172 162 168 167 167 159 144 163 158 179 203 202 217 220 215 214 218 223 229 229 229 234
169 192 224 103 127 129 125 116 116 122 125 144 141 141 141 136 138 143 146 152 156 160 160 161 169 170 171 173 150 156 150 152 165 154 165 162 174 203 226 228 232 230 227 225 237 235 225 214 212
185 218 172 111 109 115 123 124 114 123 148 151 144 145 145 142 149 153 151 151 149 149 159 163 166 167 178 164 157 153 148 160 165 175 169 152 157 208 212 209 221 214 219 214 228 223 219 220 217
170 255 141 121 102 110 105 108 112 116 124 132 136 136 141 143 147 148 145 142 137 146 160 163 158 155 158 149 156 142 158 161 168 162 157 155 160 181 184 180 192 195 195 198 206 219 216 215 217
215 173 130 123 109 104 109 110 101 134 132 136 142 144 149 150 150 140 137 140 142 145 153 154 150 150 141 139 142 146 152 153 146 161 172 155 154 153 152 177 187 197 197 203 199 208 208 211 208
8 47 49 100 97 103 92 80 118 147 136 140 146 149 151 154 150 149 153 150 150 148 150 152 144 138 139 134 132 128 143 142 146 151 156 149 150 151 146 163 184 231 225 208 199 218 200 213 203
30 48 12 285 131 121 95 116 153 150 144 148 152 153 153 156 157 156 153 149 148 145 149 155 141 134 135 130 124 123 129 137 148 144 160 146 149 143 131 131 204 242 196 158 179 182 170 231 217
22 84 256 283 152 129 115 164 178 156 144 151 159 162 157 153 157 163 162 156 152 152 151 150 140 141 142 131 121 111 116 123 132 121 126 145 147 133 127 141 212 224 106 95 193 96 156 188 243
239 210 226 232 193 138 139 171 180 170 153 164 166 167 159 160 173 167 161 157 150 150 146 147 143 145 139 123 98 81 79 82 81 94 85 110 131 130 128 136 206 143 99 52 59 77 63 159 239
196 199 220 236 191 141 157 167 189 175 160 164 163 163 163 172 174 163 160 158 148 149 147 150 147 154 143 135 130 118 113 87 57 67 48 87 122 126 127 127 145 136 139 167 122 92 61 342 34
200 205 226 248 170 145 145 154 195 177 177 173 169 167 162 163 171 174 172 164 159 163 164 159 162 168 162 163 160 149 140 145 134 20 35 69 106 132 147 142 161 149 130 98 74 78 86 321 81
234 196 192 161 90 66 107 41 250 191 169 172 174 168 166 168 174 175 170 174 166 167 170 169 171 168 164 150 124 99 72 46 31 10 355 348 98 120 115 126 133 140 151 171 173 130 141 203 307
269 211 173 154 134 199 151 168 269 218 188 184 178 172 173 169 166 168 166 165 170 171 165 161 158 160 161 150 138 144 143 163 208 212 251 306 23 92 125 105 99 113 148 167 212 139 144 154 248
240 213 135 137 125 85 29 126 267 243 224 215 190 179 175 172 171 174 172 170 173 167 159 151 146 152 154 154 155 151 155 185 198 160 85 0 342 358 130 115 75 80 125 131 121 116 118 143 166
161 63 51 54 74 65 255 154 254 222 209 204 195 184 179 174 174 174 170 161 161 158 154 149 142 151 160 156 156 158 166 170 165 168 141 311 300 316 335 21 88 139 147 153 171 149 127 128 141
83 86 35 8 20 261 260 158 247 237 206 188 185 180 181 174 167 166 166 166 166 162 163 159 156 162 167 158 164 174 176 173 178 186 187 206 258 299 301 307 321 237 213 182 138 119 116 135 138
208 138 156 182 203 269 330 238 257 251 210 170 167 166 172 175 168 169 174 176 175 170 170 166 161 159 159 155 166 178 173 157 168 182 186 210 221 227 237 222 348 309 189 147 117 110 158 120 194
166 185 164 130 118 103 268 277 311 45 101 137 158 162 171 177 172 171 174 176 171 167 171 168 163 162 166 161 156 153 158 155 165 176 176 203 233 220 180 110 62 19 24 43 119 80 3 66 257
162 153 88 108 141 184 264 253 226 202 174 173 169 168 175 172 168 170 174 173 166 160 161 159 162 166 167 162 168 163 174 173 170 151 173 201 216 211 142 96 72 44 46 55 62 41 27 46 310
5 60 101 121 149 151 206 261 218 190 183 181 183 176 171 167 166 170 168 160 151 149 154 154 153 159 169 175 173 164 175 173 160 162 191 196 187 163 139 148 113 73 59 63 67 40 56 62 20
170 180 146 148 205 154 159 260 243 183 182 177 177 176 170 163 161 163 159 149 148 153 155 156 158 164 173 174 170 173 176 169 167 190 211 175 155 151 140 133 125 117 98 95 88 71 74 88 56